Torna al catalogo

STARLINK-31040

AttivoComunicazioniVLEO
NORAD 58722·PAYLOAD·🇺🇸 United States

Lanciato Jan 3, 2024 da Vandenberg Space Force Base

Loading…

Prossimi Passaggi (prossime 24 ore)

TLE

AggiornatoSource: CelesTrak SupGP

Epoca: Sep 15, 2026, 02:59 UTC

1 58722C 24002T   26258.12479167 -.00024609  00000+0 -72720-3 0  2583
2 58722  53.1584  66.7240 0001066  97.3808 320.4981 15.34398606    18

Traccia STARLINK-31040 in tempo reale con AllMySat

Download on the App Store